When you browse on this site, cookies collect data to enhance your experience and personalize the content and advertising you see.
Visit our Privacy Policy to learn more. By continuing to use the site, you agree to this use of cookies and data.
  • In Switzerland
  • List of Countries
  • For 7 days
  • Water Temperature
  • Satellite Maps
  • Weather Map
  • Weather Widgets
  • user-avatar
    Login

    Hourly Weather Yerevan

    Today, 20 June, Thursday

    Time Temperature Precipitation Wind Pressure Humidity
    00:00 +21°C° 0.5 mm 0 mps 688 mmHg 70%
    01:00 +21°C° 0.4 mm 0 mps 688 mmHg 70%
    02:00 +20°C° 0.4 mm 0 mps 688 mmHg 71%
    03:00 +22°C° 0 mm 1 mps 687 mmHg 70%
    04:00 +20°C° 0.2 mm 0 mps 688 mmHg 68%
    05:00 +21°C° 0.2 mm 0 mps 688 mmHg 65%
    06:00 +21°C° 0.2 mm 0 mps 688 mmHg 63%
    07:00 +23°C° 0.1 mm 0 mps 688 mmHg 58%
    08:00 +26°C° 0.1 mm 1 mps 687 mmHg 52%
    09:00 +27°C° 0.1 mm 1 mps 687 mmHg 47%
    10:00 +29°C° 0.1 mm 1 mps 687 mmHg 42%
    11:00 +30°C° 0.1 mm 2 mps 687 mmHg 38%
    12:00 +33°C° 0.1 mm 3 mps 687 mmHg 33%
    13:00 +34°C° 0 mm 3 mps 687 mmHg 30%
    14:00 +34°C° 0 mm 3 mps 687 mmHg 26%
    15:00 +35°C° 0 mm 3 mps 687 mmHg 23%
    16:00 +34°C° 0.1 mm 4 mps 687 mmHg 29%
    17:00 +32°C° 0.1 mm 4 mps 686 mmHg 35%
    18:00 +30°C° 0.1 mm 4 mps 686 mmHg 40%
    19:00 +28°C° 0.4 mm 4 mps 686 mmHg 48%
    20:00 +25°C° 0.4 mm 3 mps 686 mmHg 56%
    21:00 +22°C° 0.4 mm 3 mps 686 mmHg 63%
    22:00 +23°C° 0.4 mm 2 mps 686 mmHg 67%
    23:00 +21°C° 0.4 mm 2 mps 686 mmHg 71%

    Tomorrow, 21 June, Friday

    Time Temperature Precipitation Wind Pressure Humidity
    00:00 +20°C° 0.4 mm 2 mps 686 mmHg 75%
    01:00 +21°C° 0.4 mm 1 mps 686 mmHg 76%
    02:00 +20°C° 0.4 mm 1 mps 686 mmHg 76%
    03:00 +18°C° 0.4 mm 0 mps 686 mmHg 77%
    04:00 +19°C° 0.2 mm 0 mps 686 mmHg 74%
    05:00 +19°C° 0.2 mm 0 mps 686 mmHg 71%
    06:00 +20°C° 0.2 mm 0 mps 686 mmHg 68%
    07:00 +23°C° 0.2 mm 1 mps 686 mmHg 62%
    08:00 +25°C° 0.2 mm 1 mps 687 mmHg 57%
    09:00 +26°C° 0.2 mm 1 mps 687 mmHg 51%
    10:00 +28°C° 0.2 mm 1 mps 687 mmHg 46%
    11:00 +29°C° 0.2 mm 1 mps 687 mmHg 41%
    12:00 +31°C° 0.2 mm 1 mps 687 mmHg 37%
    13:00 +32°C° 0.1 mm 1 mps 687 mmHg 34%
    14:00 +32°C° 0.1 mm 1 mps 687 mmHg 32%
    15:00 +33°C° 0.1 mm 1 mps 687 mmHg 29%
    16:00 +31°C° 0.1 mm 3 mps 687 mmHg 33%
    17:00 +30°C° 0.1 mm 5 mps 687 mmHg 38%
    18:00 +28°C° 0.1 mm 6 mps 687 mmHg 42%
    19:00 +27°C° 0.4 mm 5 mps 687 mmHg 48%
    20:00 +25°C° 0.4 mm 3 mps 687 mmHg 54%
    21:00 +23°C° 0.4 mm 2 mps 688 mmHg 60%
    22:00 +23°C° 0.1 mm 1 mps 688 mmHg 61%
    23:00 +22°C° 0.1 mm 1 mps 688 mmHg 62%

    Day after tomorrow, 22 June, Saturday

    Time Temperature Precipitation Wind Pressure Humidity
    00:00 +22°C° 0.1 mm 1 mps 688 mmHg 62%
    01:00 +22°C° 0 mm 1 mps 688 mmHg 63%
    02:00 +19°C° 0 mm 0 mps 688 mmHg 64%
    03:00 +19°C° 0 mm 0 mps 688 mmHg 65%
    04:00 +22°C° 0 mm 1 mps 688 mmHg 63%
    05:00 +23°C° 0 mm 1 mps 689 mmHg 61%
    06:00 +23°C° 0 mm 1 mps 689 mmHg 59%
    07:00 +25°C° 0 mm 1 mps 689 mmHg 54%
    08:00 +26°C° 0 mm 1 mps 690 mmHg 50%
    09:00 +28°C° 0 mm 1 mps 690 mmHg 45%
    10:00 +29°C° 0.1 mm 1 mps 690 mmHg 41%
    11:00 +30°C° 0.1 mm 1 mps 690 mmHg 38%
    12:00 +32°C° 0.1 mm 2 mps 690 mmHg 34%
    13:00 +34°C° 0 mm 2 mps 690 mmHg 32%
    14:00 +34°C° 0 mm 2 mps 690 mmHg 30%
    15:00 +35°C° 0 mm 2 mps 690 mmHg 27%
    16:00 +35°C° 0 mm 3 mps 690 mmHg 29%
    17:00 +35°C° 0 mm 3 mps 690 mmHg 30%
    18:00 +34°C° 0 mm 3 mps 689 mmHg 31%
    19:00 +31°C° 0.1 mm 3 mps 690 mmHg 36%
    20:00 +29°C° 0.1 mm 3 mps 690 mmHg 41%
    21:00 +27°C° 0.1 mm 3 mps 690 mmHg 46%
    22:00 +26°C° 0.7 mm 3 mps 690 mmHg 53%
    23:00 +24°C° 0.7 mm 2 mps 690 mmHg 60%

    23 June, Sunday

    Time Temperature Precipitation Wind Pressure Humidity
    00:00 +23°C° 0.7 mm 1 mps 690 mmHg 67%
    01:00 +23°C° 0.1 mm 1 mps 690 mmHg 67%
    02:00 +22°C° 0.1 mm 1 mps 690 mmHg 68%
    03:00 +22°C° 0.1 mm 1 mps 689 mmHg 69%
    04:00 +23°C° 0 mm 1 mps 690 mmHg 67%
    05:00 +23°C° 0 mm 1 mps 690 mmHg 65%
    06:00 +24°C° 0 mm 1 mps 690 mmHg 62%
    07:00 +26°C° 0 mm 1 mps 690 mmHg 57%
    08:00 +27°C° 0 mm 1 mps 691 mmHg 51%
    09:00 +29°C° 0 mm 1 mps 691 mmHg 46%
    10:00 +30°C° 0 mm 1 mps 691 mmHg 42%
    11:00 +32°C° 0 mm 1 mps 691 mmHg 37%
    12:00 +34°C° 0 mm 1 mps 691 mmHg 33%
    13:00 +35°C° 0 mm 2 mps 691 mmHg 31%
    14:00 +36°C° 0 mm 2 mps 691 mmHg 28%
    15:00 +37°C° 0 mm 2 mps 691 mmHg 26%
    16:00 +37°C° 0 mm 2 mps 690 mmHg 27%
    17:00 +37°C° 0 mm 2 mps 690 mmHg 28%
    18:00 +36°C° 0 mm 2 mps 690 mmHg 29%
    19:00 +34°C° 0 mm 3 mps 690 mmHg 33%
    20:00 +31°C° 0 mm 3 mps 690 mmHg 37%
    21:00 +29°C° 0 mm 4 mps 690 mmHg 41%
    22:00 +28°C° 0.1 mm 3 mps 690 mmHg 45%
    23:00 +27°C° 0.1 mm 2 mps 690 mmHg 49%

    24 June, Monday

    Time Temperature Precipitation Wind Pressure Humidity
    00:00 +25°C° 0.1 mm 1 mps 690 mmHg 53%
    01:00 +25°C° 0 mm 1 mps 690 mmHg 55%
    02:00 +24°C° 0 mm 2 mps 690 mmHg 58%
    03:00 +24°C° 0 mm 2 mps 690 mmHg 60%
    04:00 +24°C° 0 mm 2 mps 690 mmHg 59%
    05:00 +25°C° 0 mm 1 mps 690 mmHg 57%
    06:00 +25°C° 0 mm 1 mps 690 mmHg 56%
    07:00 +27°C° 0 mm 1 mps 690 mmHg 51%
    08:00 +29°C° 0 mm 1 mps 690 mmHg 45%
    09:00 +31°C° 0 mm 1 mps 691 mmHg 40%
    10:00 +32°C° 0 mm 1 mps 691 mmHg 36%
    11:00 +34°C° 0 mm 1 mps 690 mmHg 33%
    12:00 +35°C° 0 mm 1 mps 690 mmHg 29%
    13:00 +36°C° 0 mm 1 mps 690 mmHg 27%
    14:00 +37°C° 0 mm 1 mps 690 mmHg 26%
    15:00 +39°C° 0 mm 2 mps 690 mmHg 24%
    16:00 +38°C° 0 mm 2 mps 690 mmHg 26%
    17:00 +38°C° 0 mm 3 mps 690 mmHg 27%
    18:00 +37°C° 0 mm 4 mps 690 mmHg 29%
    19:00 +34°C° 0.2 mm 3 mps 690 mmHg 35%
    20:00 +31°C° 0.2 mm 3 mps 690 mmHg 41%
    21:00 +28°C° 0.2 mm 3 mps 690 mmHg 48%
    22:00 +27°C° 0 mm 3 mps 690 mmHg 50%
    23:00 +27°C° 0 mm 2 mps 690 mmHg 53%

    25 June, Tuesday

    Time Temperature Precipitation Wind Pressure Humidity
    00:00 +26°C° 0 mm 2 mps 690 mmHg 56%
    01:00 +25°C° 0 mm 2 mps 690 mmHg 57%
    02:00 +25°C° 0 mm 2 mps 690 mmHg 58%
    03:00 +24°C° 0 mm 2 mps 690 mmHg 60%
    04:00 +25°C° 0 mm 2 mps 690 mmHg 58%
    05:00 +25°C° 0 mm 2 mps 690 mmHg 56%
    06:00 +26°C° 0 mm 1 mps 691 mmHg 55%
    07:00 +28°C° 0 mm 1 mps 691 mmHg 49%
    08:00 +30°C° 0 mm 1 mps 691 mmHg 44%
    09:00 +32°C° 0 mm 1 mps 691 mmHg 38%
    10:00 +33°C° 0 mm 1 mps 691 mmHg 35%
    11:00 +35°C° 0 mm 1 mps 691 mmHg 32%
    12:00 +36°C° 0 mm 1 mps 691 mmHg 28%
    13:00 +37°C° 0 mm 1 mps 691 mmHg 26%
    14:00 +39°C° 0 mm 1 mps 691 mmHg 23%
    15:00 +40°C° 0 mm 2 mps 691 mmHg 21%
    16:00 +39°C° 0 mm 2 mps 691 mmHg 22%
    17:00 +39°C° 0 mm 2 mps 690 mmHg 24%
    18:00 +39°C° 0 mm 2 mps 690 mmHg 25%
    19:00 +36°C° 0 mm 3 mps 690 mmHg 30%
    20:00 +34°C° 0 mm 3 mps 690 mmHg 35%
    21:00 +30°C° 0 mm 3 mps 690 mmHg 40%
    22:00 +29°C° 0 mm 3 mps 690 mmHg 43%
    23:00 +28°C° 0 mm 2 mps 690 mmHg 45%
    Show more